Regional Weather Roundup
Issued by NWS

Home | Current Version | Previous Version | Text Only | Print | Product List | Glossary On
Versions: 1 2 3 4 5 6 7 8 9 10 11 12 13 14 15 16 17 18 19 20 21 22 23 24 25 26 27 28 29 30 31 32 33 34 35 36 37 38 39 40 41 42 43 44 45 46 47 48 49 50
000
ASUS46 KPQR 211010
RWROR

OREGON REGIONAL WEATHER ROUNDUP
NATIONAL WEATHER SERVICE PORTLAND OR
200 AM PST WED FEB 21 2018

NOTE: "FAIR" INDICATES FEW OR NO CLOUDS BELOW 12,000 FEET WITH
NO SIGNIFICANT WEATHER AND/OR OBSTRUCTIONS TO VISIBILITY.

ORZ001>013-211100-
NORTHWEST OREGON


CITY           SKY/WX    TMP DP  RH WIND       PRES   REMARKS
ASTORIA        CLEAR     30  25  81 E8        30.29R
TILLAMOOK      FOG       32  30  93 SE3       30.25S VSB 1/2
NEWPORT        PTCLDY    34  34 100 E10       30.24R WCI  26
PORTLAND       MOCLDY    31  29  92 S5        30.27R
VANCOUVER WA   FOG       27  27 100 CALM      30.27R VSB 1/2
SCAPPOOSE      CLEAR     30  28  92 NW6       30.27R
HILLSBORO      FOG       29  27  92 CALM      30.26R VSB 1/2
AURORA         CLEAR     31  26  82 N12       30.25R WCI  22
MCMINNVILLE    PTCLDY    33  29  85 N6        30.24R
SALEM          CLOUDY    33  29  85 N10       30.22R WCI  25
CORVALLIS      CLOUDY    35  33  92 N10       30.22R WCI  27
EUGENE         CLOUDY    34  34 100 NE3       30.20R
$$

ORZ021-028-211100-
SOUTHWEST OREGON


CITY           SKY/WX    TMP DP  RH WIND       PRES   REMARKS
NORTH BEND     LGT RAIN  38  36  92 SE6       30.23R
BROOKINGS      CLOUDY    38  34  85 CALM      30.18S
ROSEBURG       FLURRIES  34  33  96 CALM      30.19S
SEXTON SUMMIT  LGT SNOW  26  25  96 S8        30.04S FOG
GRANTS PASS    LGT RAIN  34  32  93 CALM      30.18R
MEDFORD        CLOUDY    36  29  75 CALM      30.15S
$$

ORZ014>016-041-211100-
COLUMBIA GORGE


CITY           SKY/WX    TMP DP  RH WIND       PRES   REMARKS
TROUTDALE      MOCLDY    31  25  78 E13       30.27R WCI  21
HOOD RIVER     LGT SNOW  28  27  93 CALM      30.33S
THE DALLES     CLOUDY    28  26  92 W3        30.35R
$$

ORZ029>031-041-044-049-050-061>064-502-503-505>511-211100-
EASTERN OREGON


CITY           SKY/WX    TMP DP  RH WIND       PRES   REMARKS
MADRAS         NOT AVBL
REDMOND        LGT SNOW  21  18  88 NW14G22   30.09R FOG     WCI   8
BEND           LGT SNOW  21  18  86 NW9G16    30.09R
PRINEVILLE     LGT SNOW  21  19  93 MISG      30.07R
KLAMATH FALLS  MOCLDY    23  15  71 SE7       30.06R
LAKEVIEW       MOCLDY    19  14  81 S3        30.04S
HERMISTON      CLOUDY    26  18  71 N10       30.31R WCI  16
PENDLETON      LGT SNOW  25  22  88 N10       30.23R FOG     WCI  15
JOHN DAY       CLOUDY    25  22  89 E3        30.02F
MEACHAM        LGT SNOW  17  14  88 CALM      30.06S FOG
LA GRANDE      FLURRIES  21  16  81 SE10      30.15S WCI  10
BAKER CITY     LGT SNOW  21  13  71 E10       30.11R WCI  10
BURNS          CLOUDY    22  19  89 CALM      30.03S
ROME             N/A     17   3  54 SE3       30.04S
ONTARIO        CLOUDY    24  11  57 NE5       30.20S
$$



USA.gov is the U.S. government's official web portal to all federal, state and local government web resources and services.